When you browse on this site, cookies collect data to enhance your experience and personalize the content and advertising you see.
Visit our Privacy Policy to learn more. By continuing to use the site, you agree to this use of cookies and data.
  • In Czech Republic
  • List of Countries
  • For 7 days
  • Water Temperature
  • Satellite Maps
  • Weather Map
  • Weather Widgets
  • user-avatar
    Login

    Hourly Weather Quebec

    Today, 21 June, Friday

    Time Temperature Precipitation Wind Pressure Humidity
    00:00 +8°C° 0 mm 1 mps 692 mmHg 88%
    01:00 +8°C° 0 mm 1 mps 692 mmHg 88%
    02:00 +7°C° 0 mm 1 mps 692 mmHg 89%
    03:00 +7°C° 0 mm 1 mps 692 mmHg 91%
    04:00 +6°C° 0 mm 1 mps 692 mmHg 93%
    05:00 +7°C° 0 mm 2 mps 693 mmHg 83%
    06:00 +9°C° 0 mm 2 mps 693 mmHg 73%
    07:00 +12°C° 0 mm 3 mps 694 mmHg 63%
    08:00 +13°C° 0 mm 3 mps 694 mmHg 59%
    09:00 +14°C° 0 mm 3 mps 694 mmHg 54%
    10:00 +17°C° 0 mm 4 mps 694 mmHg 49%
    11:00 +17°C° 0.6 mm 4 mps 694 mmHg 52%
    12:00 +16°C° 0.6 mm 5 mps 694 mmHg 55%
    13:00 +16°C° 0.6 mm 5 mps 694 mmHg 58%
    14:00 +16°C° 0.7 mm 6 mps 694 mmHg 59%
    15:00 +16°C° 0.7 mm 6 mps 694 mmHg 60%
    16:00 +15°C° 0.7 mm 6 mps 694 mmHg 61%
    17:00 +15°C° 0.3 mm 5 mps 694 mmHg 64%
    18:00 +14°C° 0.3 mm 5 mps 694 mmHg 68%
    19:00 +13°C° 0.3 mm 4 mps 694 mmHg 71%
    20:00 +11°C° 0 mm 4 mps 694 mmHg 74%
    21:00 +10°C° 0 mm 4 mps 694 mmHg 77%
    22:00 +9°C° 0 mm 3 mps 694 mmHg 80%
    23:00 +8°C° 0 mm 3 mps 694 mmHg 81%

    Tomorrow, 22 June, Saturday

    Time Temperature Precipitation Wind Pressure Humidity
    00:00 +8°C° 0 mm 3 mps 694 mmHg 82%
    01:00 +7°C° 0 mm 2 mps 694 mmHg 83%
    02:00 +7°C° 0 mm 2 mps 694 mmHg 84%
    03:00 +6°C° 0 mm 2 mps 694 mmHg 84%
    04:00 +6°C° 0 mm 2 mps 694 mmHg 85%
    05:00 +8°C° 0 mm 3 mps 695 mmHg 76%
    06:00 +10°C° 0 mm 4 mps 695 mmHg 68%
    07:00 +11°C° 0 mm 6 mps 696 mmHg 59%
    08:00 +14°C° 0 mm 6 mps 696 mmHg 53%
    09:00 +16°C° 0 mm 7 mps 696 mmHg 46%
    10:00 +17°C° 0 mm 7 mps 696 mmHg 40%
    11:00 +17°C° 0 mm 7 mps 696 mmHg 42%
    12:00 +17°C° 0 mm 7 mps 696 mmHg 44%
    13:00 +17°C° 0 mm 7 mps 696 mmHg 46%
    14:00 +17°C° 0 mm 7 mps 695 mmHg 48%
    15:00 +16°C° 0 mm 6 mps 695 mmHg 49%
    16:00 +16°C° 0 mm 6 mps 695 mmHg 51%
    17:00 +15°C° 0 mm 6 mps 695 mmHg 53%
    18:00 +15°C° 0 mm 6 mps 695 mmHg 55%
    19:00 +14°C° 0 mm 6 mps 695 mmHg 58%
    20:00 +13°C° 0 mm 6 mps 695 mmHg 60%
    21:00 +10°C° 0 mm 5 mps 694 mmHg 63%
    22:00 +8°C° 0 mm 5 mps 694 mmHg 65%
    23:00 +7°C° 0 mm 5 mps 694 mmHg 69%

    Day after tomorrow, 23 June, Sunday

    Time Temperature Precipitation Wind Pressure Humidity
    00:00 +6°C° 0 mm 5 mps 694 mmHg 73%
    01:00 +6°C° 0 mm 4 mps 694 mmHg 77%
    02:00 +5°C° 0 mm 4 mps 694 mmHg 83%
    03:00 +4°C° 0 mm 4 mps 694 mmHg 89%
    04:00 +4°C° 0 mm 4 mps 694 mmHg 95%
    05:00 +5°C° 0 mm 5 mps 695 mmHg 82%
    06:00 +5°C° 0 mm 6 mps 695 mmHg 70%
    07:00 +7°C° 0 mm 6 mps 696 mmHg 57%
    08:00 +8°C° 0 mm 7 mps 696 mmHg 52%
    09:00 +9°C° 0 mm 7 mps 696 mmHg 46%
    10:00 +11°C° 0 mm 7 mps 697 mmHg 41%
    11:00 +12°C° 0 mm 7 mps 697 mmHg 39%
    12:00 +13°C° 0 mm 6 mps 697 mmHg 38%
    13:00 +14°C° 0 mm 6 mps 697 mmHg 36%
    14:00 +15°C° 0 mm 6 mps 697 mmHg 36%
    15:00 +15°C° 0 mm 6 mps 697 mmHg 36%
    16:00 +15°C° 0 mm 6 mps 697 mmHg 35%
    17:00 +14°C° 0 mm 5 mps 697 mmHg 40%
    18:00 +13°C° 0 mm 4 mps 696 mmHg 44%
    19:00 +12°C° 0 mm 3 mps 696 mmHg 48%
    20:00 +10°C° 0 mm 3 mps 696 mmHg 52%
    21:00 +9°C° 0 mm 3 mps 696 mmHg 57%
    22:00 +7°C° 0 mm 3 mps 696 mmHg 61%
    23:00 +6°C° 0 mm 2 mps 696 mmHg 63%

    24 June, Monday

    Time Temperature Precipitation Wind Pressure Humidity
    00:00 +5°C° 0 mm 2 mps 696 mmHg 64%
    01:00 +6°C° 0 mm 1 mps 696 mmHg 66%
    02:00 +5°C° 0 mm 1 mps 696 mmHg 67%
    03:00 +5°C° 0 mm 1 mps 696 mmHg 67%
    04:00 +5°C° 0 mm 1 mps 696 mmHg 68%
    05:00 +7°C° 0 mm 1 mps 697 mmHg 59%
    06:00 +10°C° 0 mm 1 mps 697 mmHg 51%
    07:00 +12°C° 0 mm 1 mps 698 mmHg 43%
    08:00 +14°C° 0 mm 2 mps 698 mmHg 39%
    09:00 +15°C° 0 mm 2 mps 698 mmHg 35%
    10:00 +17°C° 0 mm 2 mps 698 mmHg 31%
    11:00 +18°C° 0 mm 2 mps 698 mmHg 30%
    12:00 +19°C° 0 mm 2 mps 697 mmHg 28%
    13:00 +20°C° 0 mm 2 mps 697 mmHg 26%
    14:00 +20°C° 0 mm 2 mps 697 mmHg 26%
    15:00 +20°C° 0 mm 2 mps 697 mmHg 26%
    16:00 +21°C° 0 mm 2 mps 697 mmHg 25%
    17:00 +20°C° 0 mm 1 mps 696 mmHg 31%
    18:00 +19°C° 0 mm 1 mps 696 mmHg 36%
    19:00 +18°C° 0 mm 1 mps 696 mmHg 41%
    20:00 +15°C° 0 mm 2 mps 696 mmHg 43%
    21:00 +14°C° 0 mm 2 mps 695 mmHg 45%
    22:00 +12°C° 0 mm 3 mps 695 mmHg 47%
    23:00 +11°C° 0 mm 3 mps 695 mmHg 48%

    25 June, Tuesday

    Time Temperature Precipitation Wind Pressure Humidity
    00:00 +11°C° 0 mm 3 mps 695 mmHg 49%
    01:00 +11°C° 0 mm 4 mps 695 mmHg 50%
    02:00 +11°C° 0 mm 4 mps 695 mmHg 49%
    03:00 +11°C° 0 mm 4 mps 695 mmHg 49%
    04:00 +11°C° 0 mm 4 mps 695 mmHg 48%
    05:00 +10°C° 0 mm 5 mps 694 mmHg 47%
    06:00 +12°C° 0 mm 5 mps 694 mmHg 46%
    07:00 +12°C° 0 mm 5 mps 694 mmHg 45%
    08:00 +14°C° 0 mm 6 mps 694 mmHg 41%
    09:00 +16°C° 0 mm 7 mps 694 mmHg 37%
    10:00 +18°C° 0 mm 8 mps 694 mmHg 33%
    11:00 +18°C° 0 mm 7 mps 694 mmHg 33%
    12:00 +18°C° 0 mm 7 mps 693 mmHg 34%
    13:00 +18°C° 0 mm 7 mps 693 mmHg 34%
    14:00 +16°C° 0.6 mm 7 mps 693 mmHg 49%
    15:00 +14°C° 0.6 mm 7 mps 692 mmHg 64%
    16:00 +10°C° 0.6 mm 8 mps 691 mmHg 79%
    17:00 +10°C° 1.6 mm 8 mps 691 mmHg 83%
    18:00 +8°C° 1.6 mm 9 mps 691 mmHg 87%
    19:00 +8°C° 1.6 mm 9 mps 691 mmHg 90%
    20:00 +8°C° 0.6 mm 9 mps 690 mmHg 91%
    21:00 +10°C° 0.6 mm 9 mps 690 mmHg 92%
    22:00 +10°C° 0.6 mm 9 mps 690 mmHg 92%
    23:00 +10°C° 1.1 mm 9 mps 690 mmHg 93%

    26 June, Wednesday

    Time Temperature Precipitation Wind Pressure Humidity
    00:00 +10°C° 1.1 mm 8 mps 690 mmHg 94%
    01:00 +10°C° 1.1 mm 8 mps 690 mmHg 94%
    02:00 +10°C° 0.5 mm 7 mps 690 mmHg 95%
    03:00 +10°C° 0.5 mm 7 mps 690 mmHg 95%
    04:00 +10°C° 0.5 mm 6 mps 690 mmHg 96%
    05:00 +10°C° 0.3 mm 6 mps 691 mmHg 96%
    06:00 +10°C° 0.3 mm 5 mps 691 mmHg 96%
    07:00 +11°C° 0.3 mm 4 mps 691 mmHg 97%
    08:00 +11°C° 0.4 mm 3 mps 692 mmHg 96%
    09:00 +11°C° 0.4 mm 3 mps 692 mmHg 96%
    10:00 +12°C° 0.4 mm 3 mps 693 mmHg 95%
    11:00 +13°C° 0.1 mm 3 mps 693 mmHg 91%
    12:00 +14°C° 0.1 mm 3 mps 693 mmHg 87%
    13:00 +14°C° 0.1 mm 3 mps 694 mmHg 84%
    14:00 +16°C° 0 mm 3 mps 694 mmHg 80%
    15:00 +17°C° 0 mm 2 mps 694 mmHg 76%
    16:00 +18°C° 0 mm 2 mps 695 mmHg 72%
    17:00 +17°C° 0 mm 2 mps 695 mmHg 75%
    18:00 +17°C° 0 mm 2 mps 695 mmHg 78%
    19:00 +17°C° 0 mm 2 mps 695 mmHg 81%
    20:00 +15°C° 0 mm 2 mps 695 mmHg 86%
    21:00 +14°C° 0 mm 2 mps 694 mmHg 90%
    22:00 +12°C° 0 mm 3 mps 694 mmHg 94%
    23:00 +11°C° 0 mm 3 mps 694 mmHg 95%
    Show more